K4OBI Weather Reports


time (UTC)temp
C
wind
direction
speed
KPH
gust
KPH
rain 1hr
cm
rain 24hr
cm
rain mn
cm
humidity
%
barometer
mb
20260504151146 20 280 6.4 17.7 0.00 0.00 0.00 46 1019.8
20260504151046 20 194 6.4 17.7 0.00 0.00 0.00 47 1019.7
20260504150939 20 301 6.4 20.9 0.00 0.00 0.00 45 1019.7
20260504150839 20 217 6.4 20.9 0.00 0.00 0.00 45 1019.8
20260504150740 20 229 6.4 20.9 0.00 0.00 0.00 45 1019.8
20260504150640 20 258 6.4 20.9 0.00 0.00 0.00 46 1019.8
20260504150539 20 186 8.0 20.9 0.00 0.00 0.00 45 1019.8
20260504150508 20 199 6.4 20.9 0.00 0.00 0.00 45 1019.8
20260504150335 20 218 6.4 20.9 0.00 0.00 0.00 45 1019.9
20260504150234 20 271 6.4 20.9 0.00 0.00 0.00 45 1019.8
20260504150137 20 159 6.4 20.9 0.00 0.00 0.00 44 1019.8
20260504141238 19 210 1.6 9.7 0.00 0.00 0.00 50 1019.4
20260504141136 18 153 1.6 6.4 0.00 0.00 0.00 49 1019.4
20260504141036 18 205 1.6 6.4 0.00 0.00 0.00 47 1019.4
20260504140933 18 210 1.6 6.4 0.00 0.00 0.00 50 1019.3
20260504140827 18 252 1.6 6.4 0.00 0.00 0.00 51 1019.3
20260504140727 18 134 1.6 6.4 0.00 0.00 0.00 49 1019.3
20260504140628 18 152 1.6 6.4 0.00 0.00 0.00 51 1019.3
20260504140528 18 82 1.6 8.0 0.00 0.00 0.00 50 1019.3
20260504140428 18 27 1.6 8.0 0.00 0.00 0.00 49 1019.3
20260504140356 18 134 3.2 8.0 0.00 0.00 0.00 50 1019.4
20260504140223 18 310 3.2 8.0 0.00 0.00 0.00 51 1019.4
20260504140122 18 38 3.2 8.0 0.00 0.00 0.00 49 1019.4
20260504130822 12 169 1.6 6.4 0.00 0.00 0.00 72 1019.4
20260504130715 12 184 1.6 6.4 0.00 0.00 0.00 73 1019.5
20260504130616 12 233 1.6 6.4 0.00 0.00 0.00 73 1019.5
20260504130518 12 250 1.6 6.4 0.00 0.00 0.00 72 1019.4
20260504130501 12 217 1.6 6.4 0.00 0.00 0.00 73 1019.3
20260504130316 12 289 1.6 6.4 0.00 0.00 0.00 72 1019.3
20260504130246 12 253 1.6 6.4 0.00 0.00 0.00 72 1019.3
20260504130112 11 148 1.6 4.8 0.00 0.00 0.00 73 1019.4
20260504120306 7 197 1.6 8.0 0.00 0.00 0.00 85 1019.3
20260504120204 7 197 1.6 8.0 0.00 0.00 0.00 85 1019.3
20260504110702 5 27 0.0 3.2 0.00 0.00 0.00 92 1019.1
20260504110634 5 27 0.0 3.2 0.00 0.00 0.00 92 1019.0
20260504110503 5 27 0.0 3.2 0.00 0.00 0.00 92 1019.0
20260504110403 5 27 0.0 0.0 0.00 0.00 0.00 93 1019.0
20260504110303 5 27 0.0 0.0 0.00 0.00 0.00 93 1018.9
20260504110204 5 27 0.0 0.0 0.00 0.00 0.00 93 1019.0
20260504110103 5 27 0.0 0.0 0.00 0.00 0.00 93 1018.9
20260504100548 3 27 0.0 1.6 0.00 0.00 0.00 91 1018.8
20260504100450 3 27 0.0 0.0 0.00 0.00 0.00 91 1018.8
20260504100349 3 27 0.0 0.0 0.00 0.00 0.00 91 1018.8
20260504100250 3 27 0.0 0.0 0.00 0.00 0.00 91 1018.9
20260504100150 3 27 0.0 0.0 0.00 0.00 0.00 91 1018.8
20260504090118 5 28 0.0 0.0 0.00 0.00 0.00 88 1018.8
20260504081923 5 28 0.0 1.6 0.00 0.00 0.00 85 1019.0
20260504081823 5 28 0.0 1.6 0.00 0.00 0.00 85 1019.0
20260504081723 5 28 0.0 1.6 0.00 0.00 0.00 85 1019.1
20260504081619 5 28 0.0 3.2 0.00 0.00 0.00 85 1019.1
20260504081516 5 28 0.0 4.8 0.00 0.00 0.00 85 1019.0
20260504081416 5 28 1.6 4.8 0.00 0.00 0.00 85 1019.0
20260504081316 5 28 1.6 4.8 0.00 0.00 0.00 85 1019.0
20260504081216 5 28 1.6 4.8 0.00 0.00 0.00 85 1019.0
20260504081120 5 28 1.6 4.8 0.00 0.00 0.00 85 1019.0
20260504081017 5 28 1.6 4.8 0.00 0.00 0.00 85 1019.0
20260504081001 5 28 1.6 4.8 0.00 0.00 0.00 85 1019.0
20260504080813 5 28 1.6 4.8 0.00 0.00 0.00 85 1018.9
20260504080711 5 28 1.6 4.8 0.00 0.00 0.00 84 1018.9
20260504080607 5 28 1.6 4.8 0.00 0.00 0.00 84 1019.0
20260504080509 5 21 0.0 3.2 0.00 0.00 0.00 84 1019.0
20260504080453 5 13 0.0 3.2 0.00 0.00 0.00 84 1019.0
20260504080305 5 354 0.0 3.2 0.00 0.00 0.00 84 1019.0
20260504080205 6 266 0.0 0.0 0.00 0.00 0.00 84 1019.0
20260504080104 6 256 0.0 0.0 0.00 0.00 0.00 84 1018.9
20260504070354 9 256 0.0 1.6 0.00 0.00 0.00 68 1019.0
20260504070153 9 256 0.0 1.6 0.00 0.00 0.00 67 1019.0
20260504060241 10 281 0.0 3.2 0.00 0.00 0.00 64 1019.0
20260504060140 10 281 0.0 3.2 0.00 0.00 0.00 64 1019.0
20260504050741 11 211 0.0 3.2 0.00 0.00 0.00 58 1019.2
20260504050638 11 211 0.0 3.2 0.00 0.00 0.00 58 1019.2
20260504050538 11 211 0.0 3.2 0.00 0.00 0.00 58 1019.3
20260504050437 11 210 0.0 3.2 0.00 0.00 0.00 57 1019.3
20260504050335 11 215 0.0 3.2 0.00 0.00 0.00 58 1019.3
20260504050230 11 215 0.0 3.2 0.00 0.00 0.00 58 1019.2
20260504050129 11 215 0.0 3.2 0.00 0.00 0.00 58 1019.2
20260504045928 11 274 0.0 3.2 0.00 0.00 0.00 58 1019.3
20260504045828 11 209 0.0 3.2 0.00 0.00 0.00 58 1019.3
20260504045723 11 227 0.0 0.0 0.00 0.00 0.00 59 1019.3
20260504045623 11 227 0.0 0.0 0.00 0.00 0.00 58 1019.3
20260504045523 11 227 0.0 0.0 0.00 0.00 0.00 58 1019.2
20260504045423 11 227 0.0 0.0 0.00 0.00 0.00 59 1019.2
20260504045322 11 227 0.0 1.6 0.00 0.00 0.00 58 1019.3
20260504045218 11 227 0.0 1.6 0.00 0.00 0.00 58 1019.3
20260504045117 11 227 0.0 1.6 0.00 0.00 0.00 58 1019.2
20260504045016 11 227 0.0 1.6 0.00 0.00 0.00 59 1019.3
20260504044915 11 227 0.0 1.6 0.00 0.00 0.00 58 1019.2
20260504044837 11 227 0.0 1.6 0.00 0.00 0.00 59 1019.2
20260504044712 11 227 0.0 1.6 0.00 0.00 0.00 57 1019.2
20260504044618 11 227 0.0 1.6 0.00 0.00 0.00 57 1019.2
20260504044559 11 227 0.0 3.2 0.00 0.00 0.00 57 1019.3
20260504044412 11 210 0.0 3.2 0.00 0.00 0.00 57 1019.2
20260504044310 11 221 0.0 3.2 0.00 0.00 0.00 57 1019.2
20260504044211 11 221 0.0 3.2 0.00 0.00 0.00 58 1019.2
20260504044111 11 221 0.0 3.2 0.00 0.00 0.00 57 1019.3
20260504044054 11 220 0.0 3.2 0.00 0.00 0.00 57 1019.3
20260504043907 11 220 0.0 3.2 0.00 0.00 0.00 57 1019.2
20260504043805 11 220 0.0 3.2 0.00 0.00 0.00 57 1019.2
20260504043700 11 220 0.0 3.2 0.00 0.00 0.00 57 1019.2
20260504043605 11 150 0.0 3.2 0.00 0.00 0.00 57 1019.3
20260504043548 11 144 0.0 3.2 0.00 0.00 0.00 58 1019.3
20260504043400 11 226 0.0 1.6 0.00 0.00 0.00 57 1019.3
20260504043259 11 268 0.0 1.6 0.00 0.00 0.00 58 1019.3
20260504043154 11 268 0.0 1.6 0.00 0.00 0.00 57 1019.3
20260504043053 11 257 0.0 1.6 0.00 0.00 0.00 57 1019.3
20260504042853 11 253 0.0 1.6 0.00 0.00 0.00 57 1019.2
20260504042752 11 253 0.0 1.6 0.00 0.00 0.00 57 1019.2
20260504042652 11 253 0.0 1.6 0.00 0.00 0.00 57 1019.2
20260504042549 11 253 0.0 1.6 0.00 0.00 0.00 57 1019.2
20260504042451 11 253 0.0 1.6 0.00 0.00 0.00 57 1019.2
20260504042348 11 253 0.0 1.6 0.00 0.00 0.00 57 1019.2
20260504042247 11 253 0.0 1.6 0.00 0.00 0.00 57 1019.3
20260504042147 11 253 0.0 1.6 0.00 0.00 0.00 57 1019.2
20260504042048 11 261 0.0 1.6 0.00 0.00 0.00 57 1019.2
20260504042031 11 261 0.0 1.6 0.00 0.00 0.00 56 1019.2
20260504041842 11 261 0.0 1.6 0.00 0.00 0.00 57 1019.1
20260504041741 11 261 0.0 1.6 0.00 0.00 0.00 56 1019.2
20260504041634 11 261 0.0 1.6 0.00 0.00 0.00 57 1019.2
20260504041535 12 261 0.0 1.6 0.00 0.00 0.00 56 1019.2
20260504041335 12 261 0.0 1.6 0.00 0.00 0.00 56 1019.2
20260504041235 12 261 0.0 1.6 0.00 0.00 0.00 56 1019.2
20260504041135 12 261 0.0 1.6 0.00 0.00 0.00 56 1019.2
20260504041031 12 261 0.0 1.6 0.00 0.00 0.00 55 1019.1
20260504040929 12 261 0.0 1.6 0.00 0.00 0.00 54 1019.2
20260504040831 12 261 0.0 1.6 0.00 0.00 0.00 54 1019.1
20260504040730 12 261 0.0 1.6 0.00 0.00 0.00 55 1019.1
20260504040625 12 261 0.0 1.6 0.00 0.00 0.00 55 1019.0
20260504040522 12 263 0.0 1.6 0.00 0.00 0.00 54 1019.1
20260504040322 12 263 0.0 3.2 0.00 0.00 0.00 54 1019.1
20260504040222 12 263 0.0 3.2 0.00 0.00 0.00 55 1019.2
20260504040118 12 267 0.0 4.8 0.00 0.00 0.00 54 1019.1
20260504040018 12 228 1.6 4.8 0.00 0.00 0.00 54 1019.1
20260504035916 12 228 1.6 4.8 0.00 0.00 0.00 54 1019.1
20260504035820 12 228 1.6 4.8 0.00 0.00 0.00 54 1019.0
20260504035718 12 228 1.6 4.8 0.00 0.00 0.00 54 1019.2
20260504035614 12 228 1.6 4.8 0.00 0.00 0.00 53 1019.1
20260504035518 12 228 1.6 4.8 0.00 0.00 0.00 53 1019.1
20260504035502 12 221 1.6 4.8 0.00 0.00 0.00 54 1019.0
20260504035312 12 146 1.6 4.8 0.00 0.00 0.00 53 1019.1
20260504035229 12 216 1.6 4.8 0.00 0.00 0.00 54 1019.0
20260504035210 12 219 1.6 4.8 0.00 0.00 0.00 54 1019.1
20260504035012 12 161 1.6 4.8 0.00 0.00 0.00 54 1019.1
20260504034956 12 174 0.0 4.8 0.00 0.00 0.00 55 1019.1
20260504034807 12 219 0.0 4.8 0.00 0.00 0.00 54 1019.0
20260504034706 12 221 0.0 1.6 0.00 0.00 0.00 55 1019.0
20260504034601 12 220 0.0 3.2 0.00 0.00 0.00 55 1019.1
20260504034500 12 209 0.0 3.2 0.00 0.00 0.00 54 1019.1
20260504034300 12 208 0.0 3.2 0.00 0.00 0.00 55 1019.1
20260504034159 12 208 0.0 3.2 0.00 0.00 0.00 55 1019.1
20260504034055 12 208 0.0 3.2 0.00 0.00 0.00 55 1019.0
20260504033953 12 209 0.0 3.2 0.00 0.00 0.00 55 1019.1
20260504033853 12 208 0.0 3.2 0.00 0.00 0.00 55 1019.1
20260504033754 11 207 0.0 3.2 0.00 0.00 0.00 55 1019.2
20260504033654 11 303 0.0 3.2 0.00 0.00 0.00 55 1019.1
20260504033552 11 262 0.0 1.6 0.00 0.00 0.00 56 1019.1
20260504033450 11 262 0.0 1.6 0.00 0.00 0.00 56 1019.1
20260504033350 11 262 0.0 1.6 0.00 0.00 0.00 55 1019.1
20260504033250 11 262 0.0 1.6 0.00 0.00 0.00 56 1019.2
20260504033148 11 39 0.0 1.6 0.00 0.00 0.00 55 1019.2
20260504033041 11 263 0.0 1.6 0.00 0.00 0.00 55 1019.1
20260504032941 11 263 0.0 1.6 0.00 0.00 0.00 55 1019.2
20260504032842 11 265 0.0 1.6 0.00 0.00 0.00 55 1019.2
20260504032742 11 248 0.0 1.6 0.00 0.00 0.00 55 1019.1
20260504032642 11 248 0.0 1.6 0.00 0.00 0.00 56 1019.2
20260504032535 11 212 0.0 1.6 0.00 0.00 0.00 55 1019.1
20260504032435 11 212 0.0 1.6 0.00 0.00 0.00 55 1019.1
20260504032235 11 212 0.0 1.6 0.00 0.00 0.00 55 1019.1
20260504032136 11 212 0.0 1.6 0.00 0.00 0.00 55 1019.1
20260504032030 11 212 0.0 1.6 0.00 0.00 0.00 55 1019.1
20260504031929 11 212 0.0 1.6 0.00 0.00 0.00 54 1019.1
20260504031731 11 212 0.0 1.6 0.00 0.00 0.00 54 1019.2
20260504031630 11 212 0.0 1.6 0.00 0.00 0.00 54 1019.2
20260504031525 11 212 0.0 1.6 0.00 0.00 0.00 54 1019.3
20260504031422 11 212 0.0 1.6 0.00 0.00 0.00 54 1019.3
20260504031223 12 212 0.0 1.6 0.00 0.00 0.00 54 1019.3
20260504031123 12 212 0.0 1.6 0.00 0.00 0.00 54 1019.3
20260504031020 12 212 0.0 1.6 0.00 0.00 0.00 54 1019.3
20260504030920 12 212 0.0 1.6 0.00 0.00 0.00 54 1019.3
20260504030822 12 212 0.0 1.6 0.00 0.00 0.00 54 1019.3
20260504030718 12 212 0.0 1.6 0.00 0.00 0.00 54 1019.2
20260504030617 12 212 0.0 1.6 0.00 0.00 0.00 54 1019.2
20260504030517 12 212 0.0 3.2 0.00 0.00 0.00 54 1019.1
20260504030416 12 212 0.0 3.2 0.00 0.00 0.00 53 1019.1
20260504030315 12 212 0.0 3.2 0.00 0.00 0.00 53 1019.1
20260504030214 12 212 0.0 3.2 0.00 0.00 0.00 53 1019.1
20260504030112 12 212 0.0 3.2 0.00 0.00 0.00 53 1019.0
20260504030009 12 212 0.0 3.2 0.00 0.00 0.00 53 1019.0
20260504025907 12 213 0.0 3.2 0.00 0.00 0.00 53 1019.0
20260504025808 12 213 1.6 3.2 0.00 0.00 0.00 53 1019.1
20260504025706 12 240 1.6 3.2 0.00 0.00 0.00 53 1019.0
20260504025604 12 219 1.6 4.8 0.00 0.00 0.00 53 1019.0
20260504025459 12 214 1.6 4.8 0.00 0.00 0.00 53 1019.1
20260504025358 12 216 1.6 4.8 0.00 0.00 0.00 53 1019.0
20260504025258 12 225 1.6 4.8 0.00 0.00 0.00 54 1019.0
20260504025157 12 225 1.6 4.8 0.00 0.00 0.00 54 1019.0
20260504025058 12 225 1.6 4.8 0.00 0.00 0.00 54 1019.0
20260504024956 12 225 1.6 4.8 0.00 0.00 0.00 54 1019.0
20260504024917 12 225 1.6 4.8 0.00 0.00 0.00 54 1019.0
20260504024752 12 216 1.6 4.8 0.00 0.00 0.00 54 1019.1
20260504024653 11 213 1.6 4.8 0.00 0.00 0.00 54 1019.0
20260504024552 11 266 1.6 4.8 0.00 0.00 0.00 55 1019.0
20260504024445 11 267 1.6 4.8 0.00 0.00 0.00 55 1019.0
20260504024345 11 167 0.0 3.2 0.00 0.00 0.00 55 1019.1
20260504024245 11 167 0.0 3.2 0.00 0.00 0.00 55 1019.1
20260504024146 11 238 0.0 3.2 0.00 0.00 0.00 55 1019.1
20260504024045 11 252 0.0 3.2 0.00 0.00 0.00 56 1019.1
20260504023940 11 247 0.0 1.6 0.00 0.00 0.00 56 1019.2
20260504023840 11 231 0.0 1.6 0.00 0.00 0.00 56 1019.1
20260504023739 11 231 0.0 1.6 0.00 0.00 0.00 57 1019.1
20260504023640 11 231 0.0 1.6 0.00 0.00 0.00 56 1019.2
20260504023539 11 224 0.0 1.6 0.00 0.00 0.00 57 1019.2
20260504023439 11 224 0.0 1.6 0.00 0.00 0.00 57 1019.2
20260504023336 11 224 0.0 1.6 0.00 0.00 0.00 57 1019.2
20260504023237 10 224 0.0 1.6 0.00 0.00 0.00 57 1019.2
20260504023134 10 224 0.0 1.6 0.00 0.00 0.00 57 1019.2
20260504023033 10 224 0.0 1.6 0.00 0.00 0.00 58 1019.2
20260504022928 10 224 0.0 1.6 0.00 0.00 0.00 58 1019.2
20260504022827 10 218 0.0 1.6 0.00 0.00 0.00 58 1019.2
20260504022727 10 218 0.0 0.0 0.00 0.00 0.00 59 1019.2
20260504022627 10 218 0.0 0.0 0.00 0.00 0.00 58 1019.2
20260504022528 10 218 0.0 0.0 0.00 0.00 0.00 58 1019.3
20260504022424 11 218 0.0 0.0 0.00 0.00 0.00 58 1019.2
20260504022324 11 218 0.0 0.0 0.00 0.00 0.00 58 1019.2
20260504022223 11 218 0.0 0.0 0.00 0.00 0.00 58 1019.2
20260504022123 11 218 0.0 0.0 0.00 0.00 0.00 58 1019.2
20260504022023 11 218 0.0 0.0 0.00 0.00 0.00 58 1019.2
20260504021923 11 218 0.0 0.0 0.00 0.00 0.00 58 1019.2
20260504021824 11 218 0.0 0.0 0.00 0.00 0.00 58 1019.2
20260504021724 11 218 0.0 0.0 0.00 0.00 0.00 58 1019.1
20260504021622 11 218 0.0 0.0 0.00 0.00 0.00 58 1019.2
20260504021522 11 218 0.0 0.0 0.00 0.00 0.00 58 1019.2
20260504021423 11 218 0.0 0.0 0.00 0.00 0.00 57 1019.1
20260504021321 11 218 0.0 0.0 0.00 0.00 0.00 57 1019.1
20260504021222 11 219 0.0 0.0 0.00 0.00 0.00 57 1019.1
20260504021120 11 218 0.0 0.0 0.00 0.00 0.00 56 1019.1
20260504021018 11 218 0.0 0.0 0.00 0.00 0.00 57 1019.0
20260504020918 11 219 0.0 0.0 0.00 0.00 0.00 57 1019.1
20260504020849 11 218 0.0 0.0 0.00 0.00 0.00 56 1019.0
20260504020720 11 218 0.0 0.0 0.00 0.00 0.00 57 1019.1
20260504020618 11 218 0.0 0.0 0.00 0.00 0.00 57 1019.0
20260504020516 11 218 0.0 0.0 0.00 0.00 0.00 57 1019.0
20260504020419 11 218 0.0 0.0 0.00 0.00 0.00 57 1018.9
20260504020402 11 218 0.0 0.0 0.00 0.00 0.00 57 1019.1
20260504020213 11 218 0.0 0.0 0.00 0.00 0.00 56 1019.0
20260504020112 11 219 0.0 0.0 0.00 0.00 0.00 56 1019.0
20260504020011 11 218 0.0 0.0 0.00 0.00 0.00 56 1018.9
20260504015912 11 218 0.0 1.6 0.00 0.00 0.00 56 1019.0
20260504015814 11 218 0.0 1.6 0.00 0.00 0.00 56 1018.9
20260504015705 11 219 0.0 1.6 0.00 0.00 0.00 56 1018.9
20260504015605 11 218 0.0 1.6 0.00 0.00 0.00 56 1018.9
20260504015504 11 218 0.0 1.6 0.00 0.00 0.00 56 1018.8
20260504015406 11 219 0.0 1.6 0.00 0.00 0.00 56 1018.8
20260504015306 11 218 0.0 1.6 0.00 0.00 0.00 56 1018.8
20260504015202 11 218 0.0 1.6 0.00 0.00 0.00 56 1018.8
20260504015102 11 219 0.0 1.6 0.00 0.00 0.00 56 1018.8
20260504015002 11 218 0.0 1.6 0.00 0.00 0.00 56 1018.8
20260504014901 11 218 0.0 1.6 0.00 0.00 0.00 56 1018.7
20260504014800 11 218 0.0 1.6 0.00 0.00 0.00 56 1018.8
20260504014700 11 219 0.0 1.6 0.00 0.00 0.00 56 1018.7
20260504014557 11 218 0.0 0.0 0.00 0.00 0.00 56 1018.7
20260504014458 11 218 0.0 0.0 0.00 0.00 0.00 56 1018.7
20260504014356 11 218 0.0 0.0 0.00 0.00 0.00 56 1018.6
20260504014253 11 219 0.0 0.0 0.00 0.00 0.00 56 1018.7
20260504014149 11 218 0.0 0.0 0.00 0.00 0.00 56 1018.7
20260504014047 11 219 0.0 0.0 0.00 0.00 0.00 55 1018.6
20260504013947 11 218 0.0 0.0 0.00 0.00 0.00 55 1018.6
20260504013910 11 218 0.0 0.0 0.00 0.00 0.00 55 1018.6
20260504013851 11 218 0.0 0.0 0.00 0.00 0.00 55 1018.5
20260504013645 11 218 0.0 0.0 0.00 0.00 0.00 55 1018.5
20260504013544 11 218 0.0 0.0 0.00 0.00 0.00 55 1018.5
20260504013342 11 218 0.0 0.0 0.00 0.00 0.00 56 1018.5
20260504013138 11 219 0.0 0.0 0.00 0.00 0.00 55 1018.4
20260504013037 11 218 0.0 0.0 0.00 0.00 0.00 55 1018.5
20260504012937 12 218 0.0 0.0 0.00 0.00 0.00 55 1018.5
20260504012836 12 218 0.0 0.0 0.00 0.00 0.00 55 1018.4
20260504012629 12 218 0.0 0.0 0.00 0.00 0.00 54 1018.5
20260504012530 12 218 0.0 0.0 0.00 0.00 0.00 54 1018.5
20260504012429 12 218 0.0 0.0 0.00 0.00 0.00 54 1018.4
20260504012329 12 218 0.0 0.0 0.00 0.00 0.00 54 1018.5
20260504012124 12 218 0.0 0.0 0.00 0.00 0.00 54 1018.5
20260504012020 12 219 0.0 0.0 0.00 0.00 0.00 54 1018.5
20260504011921 12 219 0.0 0.0 0.00 0.00 0.00 54 1018.5
20260504011822 12 218 0.0 0.0 0.00 0.00 0.00 54 1018.5
20260504011620 12 218 0.0 1.6 0.00 0.00 0.00 53 1018.4
20260504011518 12 219 0.0 1.6 0.00 0.00 0.00 53 1018.4
20260504011420 12 218 0.0 1.6 0.00 0.00 0.00 53 1018.4
20260504011340 12 218 0.0 1.6 0.00 0.00 0.00 53 1018.4
20260504011320 12 218 0.0 1.6 0.00 0.00 0.00 53 1018.5
20260504011116 12 218 0.0 1.6 0.00 0.00 0.00 53 1018.4
20260504011012 12 218 0.0 1.6 0.00 0.00 0.00 52 1018.4
20260504010914 12 218 0.0 1.6 0.00 0.00 0.00 52 1018.4
20260504010811 12 218 0.0 1.6 0.00 0.00 0.00 52 1018.4
20260504010607 12 218 0.0 1.6 0.00 0.00 0.00 52 1018.4
20260504010507 12 218 0.0 1.6 0.00 0.00 0.00 51 1018.4
20260504010408 12 218 0.0 1.6 0.00 0.00 0.00 52 1018.4
20260504010305 12 218 0.0 0.0 0.00 0.00 0.00 51 1018.4
20260504010002 12 218 0.0 0.0 0.00 0.00 0.00 51 1018.4
20260504005902 12 218 0.0 1.6 0.00 0.00 0.00 51 1018.4
20260504005803 13 218 0.0 1.6 0.00 0.00 0.00 51 1018.4
20260504005747 13 218 0.0 1.6 0.00 0.00 0.00 51 1018.4
20260504005559 13 218 0.0 1.6 0.00 0.00 0.00 51 1018.3
20260504005529 13 218 0.0 1.6 0.00 0.00 0.00 51 1018.4
20260504005357 13 218 0.0 1.6 0.00 0.00 0.00 51 1018.4
20260504005316 13 218 0.0 1.6 0.00 0.00 0.00 51 1018.4
20260504005256 13 219 0.0 1.6 0.00 0.00 0.00 51 1018.4
20260504005056 13 219 0.0 1.6 0.00 0.00 0.00 51 1018.4
20260504004953 13 218 0.0 1.6 0.00 0.00 0.00 51 1018.4
20260504004850 13 218 0.0 1.6 0.00 0.00 0.00 51 1018.3
20260504004752 13 218 0.0 1.6 0.00 0.00 0.00 50 1018.3
20260504004550 13 218 0.0 1.6 0.00 0.00 0.00 50 1018.3
20260504004447 13 218 1.6 1.6 0.00 0.00 0.00 51 1018.3
20260504004346 13 218 1.6 1.6 0.00 0.00 0.00 50 1018.3
20260504004246 13 218 1.6 1.6 0.00 0.00 0.00 50 1018.2
20260504004043 13 218 1.6 3.2 0.00 0.00 0.00 50 1018.3
20260504003942 13 218 1.6 3.2 0.00 0.00 0.00 50 1018.3
20260504003839 13 208 0.0 3.2 0.00 0.00 0.00 50 1018.3
20260504003739 13 208 0.0 3.2 0.00 0.00 0.00 50 1018.3
20260504003539 13 208 0.0 3.2 0.00 0.00 0.00 50 1018.2
20260504003440 13 208 0.0 3.2 0.00 0.00 0.00 50 1018.3
20260504003339 13 208 0.0 3.2 0.00 0.00 0.00 50 1018.2
20260504003237 13 208 0.0 3.2 0.00 0.00 0.00 49 1018.3
20260504003136 13 208 0.0 3.2 0.00 0.00 0.00 49 1018.2
20260504003035 13 216 0.0 1.6 0.00 0.00 0.00 49 1018.2
20260504002933 13 219 0.0 1.6 0.00 0.00 0.00 49 1018.2
20260504002830 13 219 0.0 1.6 0.00 0.00 0.00 50 1018.2
20260504002732 13 219 0.0 1.6 0.00 0.00 0.00 49 1018.2
20260504002530 13 219 0.0 1.6 0.00 0.00 0.00 48 1018.2
20260504002431 13 219 0.0 1.6 0.00 0.00 0.00 48 1018.1
20260504002331 13 219 0.0 1.6 0.00 0.00 0.00 48 1018.2
20260504002231 14 219 0.0 1.6 0.00 0.00 0.00 48 1018.2
20260504002131 14 219 0.0 1.6 0.00 0.00 0.00 48 1018.2
20260504002031 14 219 0.0 1.6 0.00 0.00 0.00 48 1018.1
20260504001932 14 219 0.0 1.6 0.00 0.00 0.00 48 1018.1
20260504001826 14 220 0.0 1.6 0.00 0.00 0.00 47 1018.0
20260504001726 14 226 0.0 1.6 0.00 0.00 0.00 47 1018.1
20260504001525 14 226 0.0 1.6 0.00 0.00 0.00 46 1018.1
20260504001426 14 233 0.0 1.6 0.00 0.00 0.00 46 1018.0
20260504001325 14 233 0.0 1.6 0.00 0.00 0.00 46 1017.9
20260504001224 14 243 0.0 1.6 0.00 0.00 0.00 46 1018.0
20260504001021 15 243 0.0 1.6 0.00 0.00 0.00 46 1017.8
20260504000920 15 222 0.0 1.6 0.00 0.00 0.00 45 1017.9
20260504000819 15 218 0.0 1.6 0.00 0.00 0.00 46 1018.0
20260504000718 15 217 0.0 1.6 0.00 0.00 0.00 45 1017.9
20260504000615 15 217 0.0 1.6 0.00 0.00 0.00 45 1018.0
20260504000516 15 259 0.0 1.6 0.00 0.00 0.00 45 1018.0
20260504000416 15 260 0.0 1.6 0.00 0.00 0.00 44 1017.9
20260504000309 15 261 0.0 1.6 0.00 0.00 0.00 45 1017.9
20260504000208 15 261 0.0 3.2 0.00 0.00 0.00 44 1018.0
20260504000109 15 261 0.0 3.2 0.00 0.00 0.00 44 1018.0
20260504000007 15 269 0.0 3.2 0.00 0.00 0.00 44 1018.0
20260503235906 15 208 0.0 3.2 0.00 0.00 0.00 43 1018.0
20260503235806 15 208 1.6 3.2 0.00 0.00 0.00 43 1018.0
20260503235706 15 208 1.6 4.8 0.00 0.00 0.00 43 1018.0
20260503235605 15 208 1.6 4.8 0.00 0.00 0.00 43 1017.9
20260503235504 15 208 1.6 4.8 0.00 0.00 0.00 43 1017.9
20260503235403 15 175 1.6 4.8 0.00 0.00 0.00 43 1018.0
20260503235304 15 164 1.6 4.8 0.00 0.00 0.00 42 1017.9
20260503235204 15 197 1.6 4.8 0.00 0.00 0.00 42 1018.0
20260503235102 16 198 1.6 4.8 0.00 0.00 0.00 42 1017.9
20260503235004 16 198 1.6 4.8 0.00 0.00 0.00 42 1018.1
20260503234902 16 207 1.6 4.8 0.00 0.00 0.00 41 1018.0
20260503234805 16 202 1.6 4.8 0.00 0.00 0.00 41 1018.0
20260503234702 16 190 1.6 4.8 0.00 0.00 0.00 41 1017.9
20260503234604 16 223 1.6 4.8 0.00 0.00 0.00 41 1018.1
20260503234504 16 207 1.6 4.8 0.00 0.00 0.00 40 1018.0
20260503234404 16 207 1.6 4.8 0.00 0.00 0.00 40 1018.0
20260503234303 16 252 1.6 4.8 0.00 0.00 0.00 40 1018.0
20260503234234 16 252 1.6 4.8 0.00 0.00 0.00 40 1018.0
20260503234103 16 220 1.6 4.8 0.00 0.00 0.00 39 1018.0
20260503234004 16 224 1.6 4.8 0.00 0.00 0.00 39 1018.0
20260503233859 16 217 1.6 4.8 0.00 0.00 0.00 39 1018.0
20260503233759 16 218 1.6 4.8 0.00 0.00 0.00 39 1018.0
20260503233658 16 210 1.6 6.4 0.00 0.00 0.00 39 1018.0
20260503233558 16 210 1.6 6.4 0.00 0.00 0.00 39 1018.0
20260503233500 16 219 1.6 6.4 0.00 0.00 0.00 39 1018.1
20260503233358 16 229 1.6 6.4 0.00 0.00 0.00 39 1018.0
20260503233259 16 239 1.6 6.4 0.00 0.00 0.00 38 1018.0
20260503233204 16 227 1.6 6.4 0.00 0.00 0.00 38 1018.0
20260503233059 16 214 1.6 6.4 0.00 0.00 0.00 38 1018.0
20260503233000 16 162 1.6 6.4 0.00 0.00 0.00 38 1018.1
20260503232900 16 152 1.6 6.4 0.00 0.00 0.00 38 1018.1
20260503232758 16 230 1.6 6.4 0.00 0.00 0.00 38 1018.0
20260503232658 16 216 1.6 6.4 0.00 0.00 0.00 37 1018.1
20260503232600 16 217 3.2 6.4 0.00 0.00 0.00 37 1018.1
20260503232459 16 210 3.2 6.4 0.00 0.00 0.00 37 1018.0
20260503232359 17 198 3.2 6.4 0.00 0.00 0.00 37 1018.0
20260503232300 17 212 3.2 6.4 0.00 0.00 0.00 36 1018.0
20260503232159 17 224 3.2 6.4 0.00 0.00 0.00 36 1017.9
20260503232100 17 142 3.2 6.4 0.00 0.00 0.00 36 1018.1
20260503231954 17 212 3.2 6.4 0.00 0.00 0.00 36 1018.1
20260503231856 17 224 4.8 11.3 0.00 0.00 0.00 36 1018.0
20260503231754 17 214 4.8 11.3 0.00 0.00 0.00 36 1018.0
20260503231734 17 204 4.8 11.3 0.00 0.00 0.00 36 1018.1
20260503231554 17 234 4.8 11.3 0.00 0.00 0.00 36 1018.1
20260503231455 17 231 4.8 11.3 0.00 0.00 0.00 36 1018.0
20260503231355 17 143 4.8 11.3 0.00 0.00 0.00 35 1018.0
20260503231255 17 217 4.8 11.3 0.00 0.00 0.00 35 1018.1
20260503231154 17 148 4.8 11.3 0.00 0.00 0.00 35 1018.0
20260503231054 17 219 4.8 11.3 0.00 0.00 0.00 35 1018.0
20260503230955 17 240 4.8 11.3 0.00 0.00 0.00 35 1018.1
20260503230854 17 169 3.2 11.3 0.00 0.00 0.00 35 1018.1
20260503230754 17 228 3.2 8.0 0.00 0.00 0.00 34 1018.2
20260503230656 17 204 3.2 8.0 0.00 0.00 0.00 34 1018.1
20260503230554 17 210 3.2 8.0 0.00 0.00 0.00 34 1018.1
20260503230456 17 184 3.2 8.0 0.00 0.00 0.00 34 1018.1
20260503230354 17 205 1.6 8.0 0.00 0.00 0.00 35 1018.1
20260503230256 17 196 1.6 6.4 0.00 0.00 0.00 34 1018.0
20260503230155 17 113 1.6 8.0 0.00 0.00 0.00 34 1018.1
20260503230050 18 196 1.6 8.0 0.00 0.00 0.00 33 1018.0
20260503225950 18 239 1.6 8.0 0.00 0.00 0.00 34 1017.9
20260503225850 18 219 1.6 8.0 0.00 0.00 0.00 35 1018.1
20260503225750 18 210 1.6 8.0 0.00 0.00 0.00 34 1017.9
20260503225650 18 226 1.6 8.0 0.00 0.00 0.00 35 1017.9
20260503225550 18 203 1.6 8.0 0.00 0.00 0.00 33 1017.8
20260503225452 18 203 1.6 8.0 0.00 0.00 0.00 32 1018.0
20260503225351 18 200 1.6 8.0 0.00 0.00 0.00 32 1017.9
20260503225251 18 167 1.6 8.0 0.00 0.00 0.00 33 1017.9
20260503225231 18 194 1.6 4.8 0.00 0.00 0.00 34 1017.8
20260503225051 18 158 1.6 4.8 0.00 0.00 0.00 32 1017.9
20260503224951 18 211 1.6 6.4 0.00 0.00 0.00 32 1017.9
20260503224851 18 219 1.6 6.4 0.00 0.00 0.00 32 1017.8
20260503224750 18 203 1.6 6.4 0.00 0.00 0.00 31 1017.9
20260503224651 18 280 1.6 8.0 0.00 0.00 0.00 30 1017.9
20260503224550 19 10 1.6 8.0 0.00 0.00 0.00 30 1017.9
20260503224451 19 10 1.6 8.0 0.00 0.00 0.00 30 1017.8
20260503224352 19 318 1.6 8.0 0.00 0.00 0.00 30 1017.9
20260503224252 19 318 1.6 8.0 0.00 0.00 0.00 29 1017.9
20260503224146 19 283 1.6 8.0 0.00 0.00 0.00 29 1017.8
20260503224046 20 274 1.6 8.0 0.00 0.00 0.00 30 1017.9
20260503223947 20 207 1.6 8.0 0.00 0.00 0.00 30 1018.0
20260503223848 20 290 1.6 8.0 0.00 0.00 0.00 30 1017.9
20260503223749 20 205 1.6 9.7 0.00 0.00 0.00 29 1017.8
20260503223731 20 278 1.6 9.7 0.00 0.00 0.00 30 1017.9
20260503223548 20 223 1.6 9.7 0.00 0.00 0.00 30 1017.9
20260503223446 20 168 1.6 9.7 0.00 0.00 0.00 31 1017.9
20260503223346 20 157 1.6 9.7 0.00 0.00 0.00 29 1018.0
20260503223247 20 163 1.6 9.7 0.00 0.00 0.00 31 1017.9
20260503223147 20 230 1.6 9.7 0.00 0.00 0.00 31 1017.9
20260503223046 20 332 1.6 9.7 0.00 0.00 0.00 30 1017.9
20260503222947 20 281 1.6 9.7 0.00 0.00 0.00 31 1017.9
20260503222846 20 197 1.6 9.7 0.00 0.00 0.00 32 1017.9
20260503222747 20 171 3.2 11.3 0.00 0.00 0.00 33 1017.9
20260503222646 20 310 3.2 11.3 0.00 0.00 0.00 31 1017.9
20260503222548 20 310 3.2 11.3 0.00 0.00 0.00 31 1017.9
20260503222447 20 284 3.2 11.3 0.00 0.00 0.00 32 1018.0
20260503222348 20 252 3.2 11.3 0.00 0.00 0.00 30 1018.0
20260503222243 20 269 3.2 11.3 0.00 0.00 0.00 30 1018.0
20260503222144 20 239 3.2 11.3 0.00 0.00 0.00 30 1017.9
20260503222042 20 273 3.2 11.3 0.00 0.00 0.00 31 1017.9
20260503221942 20 222 3.2 11.3 0.00 0.00 0.00 30 1018.0
20260503221838 20 131 3.2 11.3 0.00 0.00 0.00 29 1018.1
20260503221736 20 188 3.2 8.0 0.00 0.00 0.00 31 1018.1
20260503221637 20 199 3.2 8.0 0.00 0.00 0.00 31 1018.1
20260503221534 20 218 3.2 11.3 0.00 0.00 0.00 29 1018.1
20260503221433 20 220 3.2 11.3 0.00 0.00 0.00 30 1018.1
20260503221333 20 129 3.2 11.3 0.00 0.00 0.00 31 1018.2
20260503221228 20 203 3.2 11.3 0.00 0.00 0.00 30 1018.1
20260503221130 20 204 3.2 11.3 0.00 0.00 0.00 30 1018.1
20260503221029 20 156 3.2 11.3 0.00 0.00 0.00 30 1018.2
20260503220928 20 166 3.2 11.3 0.00 0.00 0.00 30 1018.2
20260503220827 20 282 1.6 11.3 0.00 0.00 0.00 30 1018.2
20260503220743 20 150 1.6 11.3 0.00 0.00 0.00 29 1018.2
20260503220723 20 230 1.6 11.3 0.00 0.00 0.00 30 1018.2
20260503220522 20 205 1.6 4.8 0.00 0.00 0.00 31 1018.2
20260503220421 20 54 1.6 4.8 0.00 0.00 0.00 31 1018.3
20260503220320 20 347 1.6 11.3 0.00 0.00 0.00 30 1018.3
20260503220216 20 302 3.2 11.3 0.00 0.00 0.00 30 1018.3
20260503220116 20 196 3.2 12.9 0.00 0.00 0.00 30 1018.4
20260503220014 20 193 3.2 12.9 0.00 0.00 0.00 31 1018.3
20260503215914 20 189 3.2 12.9 0.00 0.00 0.00 33 1018.4
20260503215815 19 282 4.8 12.9 0.00 0.00 0.00 31 1018.5
20260503215712 19 162 4.8 16.1 0.00 0.00 0.00 30 1018.5
20260503215608 19 224 6.4 16.1 0.00 0.00 0.00 30 1018.5
20260503215508 19 189 6.4 16.1 0.00 0.00 0.00 30 1018.5
20260503215409 19 228 4.8 16.1 0.00 0.00 0.00 31 1018.4
20260503215306 19 202 4.8 16.1 0.00 0.00 0.00 31 1018.4
20260503215203 19 205 4.8 16.1 0.00 0.00 0.00 31 1018.4
20260503215101 19 222 4.8 16.1 0.00 0.00 0.00 31 1018.4
20260503215002 19 200 4.8 16.1 0.00 0.00 0.00 31 1018.5
20260503214902 19 293 4.8 16.1 0.00 0.00 0.00 30 1018.5
20260503214801 19 191 4.8 16.1 0.00 0.00 0.00 29 1018.5
20260503214653 20 309 3.2 14.5 0.00 0.00 0.00 30 1018.6
20260503214552 20 204 3.2 14.5 0.00 0.00 0.00 30 1018.5
20260503214454 20 253 3.2 14.5 0.00 0.00 0.00 33 1018.6
20260503214354 19 316 3.2 14.5 0.00 0.00 0.00 31 1018.6
20260503214252 19 356 3.2 14.5 0.00 0.00 0.00 31 1018.6
20260503214144 20 32 4.8 14.5 0.00 0.00 0.00 31 1018.7
20260503214045 20 333 4.8 14.5 0.00 0.00 0.00 31 1018.7
20260503213946 20 289 3.2 14.5 0.00 0.00 0.00 30 1018.7
20260503213845 20 182 3.2 14.5 0.00 0.00 0.00 30 1018.7
20260503213745 20 199 3.2 8.0 0.00 0.00 0.00 31 1018.7
20260503213640 20 287 3.2 8.0 0.00 0.00 0.00 31 1018.8
20260503213540 20 212 3.2 11.3 0.00 0.00 0.00 31 1018.7
20260503213438 20 176 3.2 11.3 0.00 0.00 0.00 32 1018.7
20260503213338 19 289 3.2 11.3 0.00 0.00 0.00 31 1018.7
20260503213237 19 191 3.2 11.3 0.00 0.00 0.00 32 1018.7
20260503213132 19 219 3.2 11.3 0.00 0.00 0.00 31 1018.7
20260503213032 19 221 3.2 11.3 0.00 0.00 0.00 31 1018.6
20260503212930 19 309 3.2 12.9 0.00 0.00 0.00 32 1018.8
20260503212830 19 319 3.2 12.9 0.00 0.00 0.00 30 1018.8
20260503212731 19 319 4.8 16.1 0.00 0.00 0.00 31 1018.8
20260503212626 19 288 4.8 16.1 0.00 0.00 0.00 32 1018.8
20260503212526 19 209 6.4 16.1 0.00 0.00 0.00 34 1018.8
20260503212425 19 195 6.4 16.1 0.00 0.00 0.00 30 1018.8
20260503212326 19 312 6.4 16.1 0.00 0.00 0.00 30 1018.8
20260503212224 19 297 6.4 16.1 0.00 0.00 0.00 30 1018.8
20260503212122 19 198 6.4 16.1 0.00 0.00 0.00 32 1018.8
20260503212018 19 215 6.4 16.1 0.00 0.00 0.00 31 1018.7
20260503211919 19 119 6.4 16.1 0.00 0.00 0.00 30 1018.8
20260503211819 19 228 4.8 16.1 0.00 0.00 0.00 30 1018.7
20260503211718 19 157 4.8 16.1 0.00 0.00 0.00 32 1018.7
20260503211612 19 138 3.2 14.5 0.00 0.00 0.00 32 1018.7
20260503211514 19 214 3.2 12.9 0.00 0.00 0.00 30 1018.7
20260503211414 20 166 3.2 9.7 0.00 0.00 0.00 30 1018.7
20260503211312 20 323 3.2 9.7 0.00 0.00 0.00 30 1018.7
20260503211212 20 230 3.2 11.3 0.00 0.00 0.00 29 1018.7
20260503211108 20 259 3.2 11.3 0.00 0.00 0.00 31 1018.8
20260503211008 20 178 3.2 12.9 0.00 0.00 0.00 31 1018.7
20260503210909 20 295 4.8 12.9 0.00 0.00 0.00 30 1018.8
20260503210808 20 297 4.8 12.9 0.00 0.00 0.00 31 1018.7
20260503210729 19 127 4.8 12.9 0.00 0.00 0.00 32 1018.7
20260503210602 19 130 4.8 12.9 0.00 0.00 0.00 31 1018.9
20260503210501 19 258 4.8 12.9 0.00 0.00 0.00 32 1018.8
20260503210401 19 258 4.8 12.9 0.00 0.00 0.00 32 1018.8
20260503210301 19 198 4.8 12.9 0.00 0.00 0.00 31 1018.8
20260503210201 19 168 3.2 12.9 0.00 0.00 0.00 31 1018.8
20260503210056 20 247 3.2 12.9 0.00 0.00 0.00 29 1018.8
20260503205956 20 185 3.2 9.7 0.00 0.00 0.00 32 1018.9
20260503205856 20 212 1.6 9.7 0.00 0.00 0.00 31 1018.8
20260503205755 20 244 3.2 9.7 0.00 0.00 0.00 32 1018.8
20260503205655 20 288 3.2 9.7 0.00 0.00 0.00 32 1018.8
20260503205552 20 300 3.2 9.7 0.00 0.00 0.00 31 1018.7
20260503205452 19 278 3.2 11.3 0.00 0.00 0.00 33 1018.8
20260503205352 19 195 3.2 14.5 0.00 0.00 0.00 34 1018.8
20260503205252 19 236 4.8 14.5 0.00 0.00 0.00 31 1018.8
20260503205225 19 236 4.8 14.5 0.00 0.00 0.00 31 1018.7
20260503205046 19 296 4.8 14.5 0.00 0.00 0.00 31 1018.7
20260503204943 19 244 6.4 16.1 0.00 0.00 0.00 29 1018.8
20260503204843 19 214 6.4 16.1 0.00 0.00 0.00 30 1018.8
20260503204643 19 229 6.4 16.1 0.00 0.00 0.00 30 1018.8
20260503204538 19 255 6.4 16.1 0.00 0.00 0.00 31 1018.8
20260503204436 19 234 4.8 16.1 0.00 0.00 0.00 31 1018.8
20260503204336 19 207 4.8 16.1 0.00 0.00 0.00 31 1018.8
20260503204242 19 115 4.8 16.1 0.00 0.00 0.00 31 1018.8
20260503204224 19 271 4.8 16.1 0.00 0.00 0.00 31 1018.8
20260503204030 19 161 4.8 11.3 0.00 0.00 0.00 31 1018.8
20260503203930 19 214 4.8 12.9 0.00 0.00 0.00 32 1018.9
20260503203831 19 20 4.8 12.9 0.00 0.00 0.00 30 1018.8
20260503203741 19 136 4.8 12.9 0.00 0.00 0.00 31 1018.8
20260503203723 19 209 4.8 12.9 0.00 0.00 0.00 30 1018.8
20260503203524 19 166 4.8 12.9 0.00 0.00 0.00 30 1018.8
20260503203423 19 218 3.2 12.9 0.00 0.00 0.00 31 1018.9
20260503203323 19 288 3.2 12.9 0.00 0.00 0.00 30 1018.8
20260503203222 19 204 3.2 12.9 0.00 0.00 0.00 30 1018.9
20260503203017 19 212 3.2 12.9 0.00 0.00 0.00 29 1018.9
20260503202916 19 155 4.8 12.9 0.00 0.00 0.00 30 1019.0
20260503202816 19 355 4.8 12.9 0.00 0.00 0.00 32 1019.0
20260503202717 19 151 4.8 12.9 0.00 0.00 0.00 30 1019.0
20260503202510 18 199 4.8 12.9 0.00 0.00 0.00 30 1019.0
20260503202410 18 293 4.8 12.9 0.00 0.00 0.00 30 1019.1
20260503202308 18 257 4.8 12.9 0.00 0.00 0.00 29 1019.0
20260503202208 18 170 4.8 14.5 0.00 0.00 0.00 28 1019.0
20260503202109 18 259 4.8 14.5 0.00 0.00 0.00 29 1019.0
20260503202003 18 331 4.8 14.5 0.00 0.00 0.00 29 1019.1
20260503201903 18 200 4.8 14.5 0.00 0.00 0.00 29 1019.1
20260503201803 18 174 4.8 14.5 0.00 0.00 0.00 28 1019.1
20260503201703 18 195 4.8 14.5 0.00 0.00 0.00 31 1019.0
20260503201602 18 327 4.8 14.5 0.00 0.00 0.00 31 1019.1
20260503201501 18 254 4.8 14.5 0.00 0.00 0.00 29 1019.2
20260503201442 18 281 4.8 14.5 0.00 0.00 0.00 30 1019.1
20260503201257 18 250 3.2 11.3 0.00 0.00 0.00 29 1019.1
20260503201224 18 356 4.8 11.3 0.00 0.00 0.00 28 1019.2
20260503201057 18 289 3.2 11.3 0.00 0.00 0.00 29 1019.2
20260503200950 18 260 3.2 11.3 0.00 0.00 0.00 31 1019.2
20260503200850 18 110 3.2 11.3 0.00 0.00 0.00 29 1019.1
20260503200753 18 158 3.2 11.3 0.00 0.00 0.00 30 1019.2
20260503200652 18 233 3.2 11.3 0.00 0.00 0.00 28 1019.4
20260503200551 19 257 3.2 11.3 0.00 0.00 0.00 28 1019.4
20260503200449 19 211 3.2 11.3 0.00 0.00 0.00 29 1019.4
20260503200349 19 240 3.2 11.3 0.00 0.00 0.00 28 1019.4
20260503200248 19 198 3.2 11.3 0.00 0.00 0.00 30 1019.4
20260503200146 19 349 3.2 11.3 0.00 0.00 0.00 30 1019.4
20260503200044 19 229 3.2 9.7 0.00 0.00 0.00 30 1019.4
20260503195939 19 107 3.2 9.7 0.00 0.00 0.00 31 1019.5
20260503195838 18 229 3.2 9.7 0.00 0.00 0.00 30 1019.5
20260503195740 18 192 3.2 9.7 0.00 0.00 0.00 30 1019.5
20260503195639 18 210 3.2 9.7 0.00 0.00 0.00 30 1019.5
20260503195539 18 274 3.2 9.7 0.00 0.00 0.00 32 1019.5
20260503195432 18 55 3.2 8.0 0.00 0.00 0.00 29 1019.5
20260503195331 18 22 3.2 8.0 0.00 0.00 0.00 30 1019.6
20260503195233 18 255 3.2 8.0 0.00 0.00 0.00 32 1019.6
20260503195137 18 233 3.2 8.0 0.00 0.00 0.00 32 1019.5
20260503195033 18 173 3.2 8.0 0.00 0.00 0.00 29 1019.6
20260503194927 18 188 3.2 8.0 0.00 0.00 0.00 30 1019.6
20260503194825 18 198 3.2 8.0 0.00 0.00 0.00 30 1019.4
20260503194728 18 239 3.2 8.0 0.00 0.00 0.00 31 1019.5
20260503194627 18 93 3.2 8.0 0.00 0.00 0.00 30 1019.5
20260503194527 18 300 3.2 12.9 0.00 0.00 0.00 32 1019.5
20260503194423 18 189 3.2 12.9 0.00 0.00 0.00 31 1019.5
20260503194322 18 141 3.2 12.9 0.00 0.00 0.00 32 1019.5
20260503194231 18 215 4.8 12.9 0.00 0.00 0.00 30 1019.5
20260503194214 18 210 4.8 12.9 0.00 0.00 0.00 31 1019.6
20260503194021 18 169 4.8 12.9 0.00 0.00 0.00 32 1019.5
20260503193916 18 49 4.8 12.9 0.00 0.00 0.00 33 1019.6
20260503193815 18 51 4.8 12.9 0.00 0.00 0.00 30 1019.6
20260503193714 18 300 4.8 12.9 0.00 0.00 0.00 32 1019.5
20260503193616 18 4 4.8 12.9 0.00 0.00 0.00 33 1019.5
20260503193514 18 312 4.8 11.3 0.00 0.00 0.00 33 1019.6
20260503193409 18 193 4.8 11.3 0.00 0.00 0.00 35 1019.6
20260503193307 18 126 4.8 11.3 0.00 0.00 0.00 33 1019.6
20260503193210 18 198 4.8 11.3 0.00 0.00 0.00 33 1019.6
20260503193110 18 259 4.8 12.9 0.00 0.00 0.00 32 1019.6
20260503193009 18 268 4.8 12.9 0.00 0.00 0.00 32 1019.6
20260503192905 18 176 4.8 12.9 0.00 0.00 0.00 33 1019.6
20260503192804 18 203 4.8 12.9 0.00 0.00 0.00 33 1019.6
20260503192704 18 255 4.8 12.9 0.00 0.00 0.00 32 1019.5
20260503192604 18 172 4.8 12.9 0.00 0.00 0.00 33 1019.5
20260503192503 18 275 4.8 12.9 0.00 0.00 0.00 34 1019.7
20260503192357 18 284 4.8 12.9 0.00 0.00 0.00 34 1019.6
20260503192256 17 167 4.8 12.9 0.00 0.00 0.00 32 1019.6
20260503192204 17 210 4.8 12.9 0.00 0.00 0.00 31 1019.6
20260503192056 18 290 4.8 12.9 0.00 0.00 0.00 33 1019.8
20260503191957 18 194 3.2 12.9 0.00 0.00 0.00 31 1019.7
20260503191857 18 252 3.2 12.9 0.00 0.00 0.00 31 1019.7
20260503191755 18 285 3.2 12.9 0.00 0.00 0.00 31 1019.7
20260503191652 18 229 3.2 12.9 0.00 0.00 0.00 35 1019.7
20260503191551 18 73 3.2 12.9 0.00 0.00 0.00 33 1019.7
20260503191452 18 25 3.2 12.9 0.00 0.00 0.00 31 1019.7
20260503191356 18 18 3.2 12.9 0.00 0.00 0.00 30 1019.7
20260503191253 18 327 3.2 12.9 0.00 0.00 0.00 32 1019.7
20260503191152 18 45 3.2 11.3 0.00 0.00 0.00 32 1019.8
20260503191052 18 281 3.2 11.3 0.00 0.00 0.00 31 1019.8
20260503190952 18 349 3.2 11.3 0.00 0.00 0.00 29 1019.8
20260503190857 18 267 3.2 12.9 0.00 0.00 0.00 34 1019.8
20260503190753 18 220 3.2 12.9 0.00 0.00 0.00 33 1019.8
20260503190658 18 256 3.2 12.9 0.00 0.00 0.00 33 1019.8
20260503190553 18 55 3.2 12.9 0.00 0.00 0.00 32 1019.8
20260503190453 18 241 3.2 12.9 0.00 0.00 0.00 32 1019.9
20260503190355 18 147 3.2 12.9 0.00 0.00 0.00 31 1019.9
20260503190248 18 184 3.2 12.9 0.00 0.00 0.00 31 1019.9
20260503190219 18 349 3.2 12.9 0.00 0.00 0.00 31 1020.0
20260503190049 18 261 3.2 12.9 0.00 0.00 0.00 30 1019.9
20260503185948 18 30 3.2 12.9 0.00 0.00 0.00 31 1020.0
20260503185848 18 49 3.2 12.9 0.00 0.00 0.00 30 1020.0
20260503185750 18 352 3.2 12.9 0.00 0.00 0.00 30 1020.0
20260503185644 18 355 3.2 12.9 0.00 0.00 0.00 32 1020.1
20260503185544 18 266 3.2 12.9 0.00 0.00 0.00 31 1020.0
20260503185445 18 11 3.2 12.9 0.00 0.00 0.00 32 1019.9
20260503185344 18 229 3.2 12.9 0.00 0.00 0.00 31 1020.0
20260503185243 18 294 3.2 12.9 0.00 0.00 0.00 35 1020.1
20260503185139 18 274 3.2 11.3 0.00 0.00 0.00 34 1020.1
20260503185040 18 56 3.2 11.3 0.00 0.00 0.00 34 1020.0
20260503184937 17 355 3.2 11.3 0.00 0.00 0.00 36 1020.1
20260503184838 17 151 3.2 11.3 0.00 0.00 0.00 34 1020.2
20260503184737 17 192 3.2 11.3 0.00 0.00 0.00 32 1020.2
20260503184705 17 82 3.2 11.3 0.00 0.00 0.00 30 1020.2
20260503184531 17 70 3.2 11.3 0.00 0.00 0.00 32 1020.1
20260503184431 18 77 3.2 12.9 0.00 0.00 0.00 33 1020.1
20260503184331 17 170 3.2 14.5 0.00 0.00 0.00 33 1020.1
20260503184230 17 333 4.8 16.1 0.00 0.00 0.00 32 1020.2
20260503184124 17 5 4.8 16.1 0.00 0.00 0.00 32 1020.2
20260503184024 18 274 4.8 16.1 0.00 0.00 0.00 31 1020.2
20260503183925 17 52 4.8 16.1 0.00 0.00 0.00 33 1020.2
20260503183824 17 263 6.4 16.1 0.00 0.00 0.00 36 1020.3
20260503183725 17 12 6.4 16.1 0.00 0.00 0.00 33 1020.3
20260503183653 17 8 8.0 20.9 0.00 0.00 0.00 33 1020.3
20260503183519 17 278 8.0 20.9 0.00 0.00 0.00 31 1020.3
20260503183418 17 206 8.0 20.9 0.00 0.00 0.00 32 1020.3
20260503183318 17 161 8.0 20.9 0.00 0.00 0.00 31 1020.3
20260503183219 17 178 6.4 20.9 0.00 0.00 0.00 31 1020.3
20260503183115 17 203 6.4 20.9 0.00 0.00 0.00 32 1020.6
20260503183013 17 198 6.4 20.9 0.00 0.00 0.00 33 1020.3
20260503182912 17 220 6.4 20.9 0.00 0.00 0.00 33 1020.3
20260503182813 17 117 6.4 20.9 0.00 0.00 0.00 32 1020.6
20260503182713 17 242 4.8 20.9 0.00 0.00 0.00 34 1020.4
20260503182606 17 212 4.8 14.5 0.00 0.00 0.00 33 1020.4
20260503182506 17 198 4.8 14.5 0.00 0.00 0.00 33 1020.4
20260503182407 17 276 4.8 14.5 0.00 0.00 0.00 31 1020.6
20260503182306 17 53 4.8 14.5 0.00 0.00 0.00 32 1020.6
20260503182206 17 286 4.8 16.1 0.00 0.00 0.00 32 1020.7
20260503182105 17 273 4.8 16.1 0.00 0.00 0.00 33 1020.6
20260503182004 17 236 4.8 16.1 0.00 0.00 0.00 34 1020.6
20260503181910 17 74 6.4 16.1 0.00 0.00 0.00 31 1020.6
20260503181853 17 51 6.4 16.1 0.00 0.00 0.00 32 1020.7
20260503181701 17 307 6.4 16.1 0.00 0.00 0.00 31 1020.8
20260503181630 17 340 4.8 16.1 0.00 0.00 0.00 35 1020.7
20260503181453 17 155 4.8 16.1 0.00 0.00 0.00 34 1020.7
20260503181355 17 207 4.8 16.1 0.00 0.00 0.00 34 1020.7
20260503181255 17 210 4.8 16.1 0.00 0.00 0.00 35 1020.7
20260503181155 17 163 4.8 12.9 0.00 0.00 0.00 36 1020.8
20260503181049 17 169 3.2 12.9 0.00 0.00 0.00 33 1020.9
20260503180948 17 245 3.2 12.9 0.00 0.00 0.00 33 1020.8
20260503180849 17 198 3.2 12.9 0.00 0.00 0.00 33 1020.8
20260503180749 17 319 3.2 12.9 0.00 0.00 0.00 34 1020.9
20260503180649 17 302 3.2 12.9 0.00 0.00 0.00 34 1021.0
20260503180545 17 333 3.2 12.9 0.00 0.00 0.00 33 1021.0
20260503180442 17 236 3.2 12.9 0.00 0.00 0.00 34 1020.8
20260503180343 17 243 3.2 11.3 0.00 0.00 0.00 37 1021.0
20260503180241 17 63 3.2 11.3 0.00 0.00 0.00 34 1020.9
20260503180143 17 317 3.2 11.3 0.00 0.00 0.00 31 1020.9
20260503180035 17 317 3.2 11.3 0.00 0.00 0.00 32 1021.0
20260503175937 17 267 3.2 11.3 0.00 0.00 0.00 34 1021.0
20260503175852 17 349 3.2 11.3 0.00 0.00 0.00 36 1021.1
20260503175829 17 214 3.2 11.3 0.00 0.00 0.00 33 1021.0
20260503175636 17 275 3.2 11.3 0.00 0.00 0.00 36 1021.1
20260503175606 17 225 3.2 11.3 0.00 0.00 0.00 33 1021.0
20260503175435 17 358 3.2 11.3 0.00 0.00 0.00 35 1021.1
20260503175333 17 341 4.8 11.3 0.00 0.00 0.00 34 1021.1
20260503175232 17 339 3.2 11.3 0.00 0.00 0.00 36 1021.1
20260503175131 16 245 3.2 11.3 0.00 0.00 0.00 35 1021.2
20260503175024 16 261 3.2 11.3 0.00 0.00 0.00 33 1021.1
20260503174923 16 283 4.8 11.3 0.00 0.00 0.00 34 1021.1
20260503174825 16 352 4.8 11.3 0.00 0.00 0.00 33 1021.3
20260503174724 16 333 4.8 11.3 0.00 0.00 0.00 35 1021.3
20260503174626 16 268 4.8 11.3 0.00 0.00 0.00 33 1021.2
20260503174553 16 227 3.2 11.3 0.00 0.00 0.00 33 1021.2
20260503174419 16 190 3.2 11.3 0.00 0.00 0.00 38 1021.3
20260503174319 16 46 4.8 12.9 0.00 0.00 0.00 34 1021.1
20260503174220 16 346 4.8 16.1 0.00 0.00 0.00 34 1021.2
20260503174119 16 255 4.8 16.1 0.00 0.00 0.00 35 1021.2
20260503174013 16 117 3.2 16.1 0.00 0.00 0.00 34 1021.2
20260503173913 16 75 3.2 16.1 0.00 0.00 0.00 39 1021.2
20260503173813 16 71 4.8 16.1 0.00 0.00 0.00 37 1021.2
20260503173712 16 113 4.8 16.1 0.00 0.00 0.00 36 1021.2
20260503173613 16 279 4.8 16.1 0.00 0.00 0.00 34 1021.3
20260503173507 16 67 4.8 16.1 0.00 0.00 0.00 36 1021.2
20260503173406 16 76 4.8 16.1 0.00 0.00 0.00 36 1021.3
20260503173307 16 20 4.8 16.1 0.00 0.00 0.00 35 1021.2
20260503173206 16 25 4.8 14.5 0.00 0.00 0.00 35 1021.3
20260503173107 16 352 4.8 14.5 0.00 0.00 0.00 35 1021.3
20260503173035 16 221 4.8 14.5 0.00 0.00 0.00 34 1021.2
20260503172900 16 320 4.8 14.5 0.00 0.00 0.00 37 1021.2
20260503172759 16 315 4.8 14.5 0.00 0.00 0.00 35 1021.3
20260503172701 16 296 4.8 14.5 0.00 0.00 0.00 34 1021.2
20260503172601 16 186 4.8 14.5 0.00 0.00 0.00 35 1021.3
20260503172454 16 274 4.8 12.9 0.00 0.00 0.00 36 1021.3
20260503172354 16 113 3.2 12.9 0.00 0.00 0.00 34 1021.3
20260503172254 16 10 3.2 12.9 0.00 0.00 0.00 34 1021.3
20260503172155 16 236 3.2 12.9 0.00 0.00 0.00 35 1021.3
20260503172054 16 281 3.2 12.9 0.00 0.00 0.00 35 1021.2
20260503171950 16 312 3.2 11.3 0.00 0.00 0.00 38 1021.2
20260503171850 16 65 3.2 11.3 0.00 0.00 0.00 40 1021.2
20260503171750 16 269 3.2 11.3 0.00 0.00 0.00 38 1021.2
20260503171651 16 86 3.2 11.3 0.00 0.00 0.00 37 1021.2
20260503171549 16 14 3.2 11.3 0.00 0.00 0.00 37 1021.2
20260503171443 15 341 3.2 11.3 0.00 0.00 0.00 39 1021.3
20260503171342 15 53 3.2 11.3 0.00 0.00 0.00 40 1021.3
20260503171241 15 12 3.2 14.5 0.00 0.00 0.00 35 1021.2
20260503171143 15 44 4.8 14.5 0.00 0.00 0.00 35 1021.2
20260503171042 15 6 4.8 14.5 0.00 0.00 0.00 36 1021.4
20260503170938 15 58 3.2 14.5 0.00 0.00 0.00 35 1021.3
20260503170839 15 304 4.8 14.5 0.00 0.00 0.00 37 1021.3
20260503170738 15 36 4.8 14.5 0.00 0.00 0.00 35 1021.4
20260503170639 15 77 4.8 14.5 0.00 0.00 0.00 35 1021.3
20260503170549 15 40 4.8 14.5 0.00 0.00 0.00 34 1021.4
20260503170528 15 28 4.8 14.5 0.00 0.00 0.00 34 1021.4
20260503170331 15 281 4.8 14.5 0.00 0.00 0.00 35 1021.5
20260503170231 15 150 4.8 14.5 0.00 0.00 0.00 34 1021.5
20260503170130 15 43 4.8 14.5 0.00 0.00 0.00 35 1021.5
20260503160119 14 49 3.2 9.7 0.00 0.00 0.00 43 1022.5